Location: Kaiser
(34.0939°N, 117.4889°W)
Time: 20:10:05
(UTC+00:00)

Cosmos 614 Rocket - Pass Details

Date: 29 October 2020
Orbit: 734 x 763 km, 74.1° (Epoch: 25 November)

Event Time Altitude Azimuth Distance (km) Brightness Sun altitude
Rises 13:10:34 0° 215° (SW) 3,191 6.9 -12.3°
Reaches altitude 10° 13:13:05 10° 224° (SW) 2,265 6.1 -11.8°
Maximum altitude 13:17:50 38° 292° (WNW) 1,133 4.4 -10.9°
Drops below altitude 10° 13:22:35 10° 360° (N) 2,259 6.3 -9.9°
Sets 13:25:06 0° 8° (N) 3,182 7.2 -9.4°
